Weather observations for the past three days for
Winfield / Arkansas City, Strother Field
Imperial (Metric)
Date Time (cdt) Wind (mph) Vis. (mi.) Weather Sky Cond. Temperature (ºF) Relative Humidity Wind Chill (°F) Heat Index (°F) Pressure Precipitation (in)
Air Dwpt 6 hour altimeter (in) sea level (mb) 1 hr 3 hr 6 hr
Max. Min.
21 23:54 E 3 10.00 Fair CLR 72 64.9 79% 30.12 1018.8
21 22:54 E 3 10.00 Fair CLR 72 64.9 79% 30.11 1018.6
21 21:54 E 3 10.00 Fair CLR 75 64.9 71% 77 30.1 1018.3
21 20:54 E 5 10.00 Fair CLR 75.9 64.9 69% 78 30.07 1017.2
21 19:54 E 8 10.00 Fair CLR 80.1 64 58% 82 30.07 1017.2
21 18:54 E 10 10.00 Fair CLR 81 63 84.9 80.1 54% 82 30.06 1016.7
21 17:54 NE 12 10.00 Overcast OVC100 82 64.9 56% 84 30.05 1016.6
21 16:54 E 10 10.00 Mostly Cloudy FEW043 BKN110 82 64.9 56% 84 30.06 1016.9
21 15:54 E 13 10.00 Mostly Cloudy SCT046 BKN065 82.9 64.9 55% 85 30.07 1017.2
21 13:54 E 14 G 22 10.00 Partly Cloudy SCT060 82 64.9 56% 84 30.1 1018.0
21 12:54 NE 12 G 21 10.00 Mostly Cloudy SCT036 BKN050 80.1 64.9 81 68 60% 82 30.11 1018.4
21 11:54 NE 10 10.00 Partly Cloudy SCT027 80.1 66.9 64% 82 30.12 1018.7
21 10:54 N 8 10.00 Partly Cloudy SCT019 77 66.9 71% 79 30.12 1018.8
21 09:54 NE 7 10.00 Overcast FEW013 OVC026 71.1 66 84% 30.12 1019.0
21 08:54 NE 10 10.00 Fair CLR 71.1 66 84% 30.11 1018.7
21 07:54 NE 8 10.00 Fair CLR 69.1 64.9 87% 30.11 1018.6
21 06:54 NE 7 10.00 A Few Clouds FEW044 FEW085 68 66 72 68 93% 30.11 1018.5
21 05:54 NE 7 10.00 Overcast FEW006 BKN075 OVC100 68 66.9 96% 30.08 1017.4
21 04:54 E 8 10.00 Overcast FEW016 OVC021 70 66.9 90% 30.07 1017.0
21 03:54 NE 10 10.00 Overcast FEW014 SCT028 OVC050 70 66.9 90% 30.07 1017.0
21 02:54 NE 6 10.00 Mostly Cloudy BKN027 71.1 68 90% 30.08 1017.3
21 01:54 NE 9 10.00 Thunderstorm in Vicinity BKN050 OVC065 71.1 68 90% 30.08 1017.4
21 00:54 E 9 10.00 Overcast OVC041 72 69.1 82 72 91% 30.08 1017.5
20 23:54 NE 6 10.00 Overcast BKN045 OVC060 75 69.1 82% 75 30.08 1017.3
20 22:54 E 7 10.00 Overcast OVC045 77 69.1 77% 79 30.08 1017.3
20 21:54 E 6 10.00 Mostly Cloudy BKN041 78.1 68 71% 80 30.07 1017.1
20 20:54 E 9 10.00 Overcast SCT050 BKN070 OVC080 79 68 69% 81 30.04 1016.3
20 19:54 E 7 10.00 Mostly Cloudy BKN049 80.1 68 67% 83 30.03 1015.7
20 18:54 E 9 10.00 A Few Clouds FEW048 FEW060 82 70 84 79 67% 86 30.02 1015.4
20 17:54 SE 6 10.00 Partly Cloudy SCT047 82.9 70 65% 87 30.02 1015.5
20 16:54 SE 8 10.00 A Few Clouds FEW032 84 71.1 65% 89 30.04 1016.0
20 15:54 SE 8 10.00 Fair CLR 82.9 71.1 67% 88 30.05 1016.4
20 14:54 Calm 10.00 A Few Clouds FEW026 FEW070 82 71.1 69% 86 30.06 1016.8
20 13:54 SE 7 10.00 Mostly Cloudy BKN065 81 70 69% 84 30.07 1017.0
20 12:54 S 7 10.00 Fair CLR 79 68 79 66.9 69% 81 30.07 1017.3 0.02
20 11:54 S 6 10.00 Fair CLR 77 68 74% 79 30.08 1017.4
20 10:54 SE 3 10.00 Fair CLR 73.9 68 82% 30.08 1017.7
20 09:54 E 5 10.00 A Few Clouds FEW110 70 70 100% 30.09 1017.9 0.01 0.02
20 08:54 E 3 10.00 Light Rain SCT070 BKN110 69.1 69.1 100% 30.09 1017.8
20 07:54 Calm 10.00 Mostly Cloudy FEW036 BKN080 BKN120 69.1 69.1 100% 30.08 1017.6 0.01
20 06:54 W 12 9.00 Light Rain FEW031 BKN080 OVC100 66.9 66 72 66.9 97% 30.09 1017.6 0.14 0.14
20 05:54 SE 3 10.00 Mostly Cloudy FEW047 SCT070 BKN110 68 64 87% 30.06 1016.6
20 04:54 S 5 10.00 Partly Cloudy SCT090 SCT120 69.1 62.1 78% 30.06 1016.6
20 03:54 SE 7 10.00 Mostly Cloudy BKN100 70 62.1 76% 30.04 1016.1
20 02:54 SE 6 10.00 A Few Clouds FEW100 70 61 73% 30.05 1016.4
20 01:54 S 3 10.00 Fair CLR 70 60.1 71% 30.06 1016.6
20 00:54 SE 6 10.00 Fair CLR 70 61 84.9 70 73% 30.05 1016.5
19 23:54 SE 7 10.00 Fair CLR 73 61 66% 30.06 1016.6
19 22:54 SE 6 10.00 Fair CLR 75 61 62% 77 30.07 1016.8
19 21:54 SE 6 10.00 Fair CLR 75.9 61 60% 78 30.07 1017.2
19 20:54 SE 7 10.00 Fair CLR 78.1 61 56% 80 30.06 1016.8
19 19:54 E 6 10.00 Fair CLR 82.9 62.1 49% 84 30.06 1016.9
19 18:54 E 6 10.00 Fair CLR 84.9 62.1 87.1 82 46% 85 30.05 1016.4
19 17:54 Vrbl 5 10.00 Fair CLR 86 63 46% 87 30.05 1016.6
19 16:54 Vrbl 5 10.00 Fair CLR 87.1 63 45% 88 30.07 1017.1
19 15:54 SE 7 10.00 Fair CLR 84.9 62.1 46% 85 30.09 1017.7
19 14:54 S 7 10.00 Fair CLR 84.9 63 48% 86 30.1 1018.1
19 13:54 SE 6 10.00 Fair CLR 84 62.1 48% 85 30.13 1019.1
19 12:54 E 5 10.00 Fair CLR 82.9 61 84 64 48% 83 30.14 1019.6
19 11:54 Calm 10.00 Fair CLR 82 60.1 47% 82 30.17 1020.3
19 10:54 S 7 10.00 Fair CLR 80.1 61 52% 81 30.17 1020.5
19 09:54 SE 6 10.00 Fair CLR 77 62.1 60% 79 30.18 1020.7
19 08:54 SE 8 10.00 Fair CLR 73 62.1 69% 30.19 1021.1
19 07:54 SE 6 10.00 Fair CLR 68 61 78% 30.18 1020.8
19 06:54 SE 3 10.00 Fair CLR 64.9 60.1 71.1 62.1 84% 30.17 1020.7
19 05:54 Calm 10.00 Fair CLR 63 60.1 90% 30.17 1020.7
19 04:54 SE 3 10.00 Fair CLR 66 60.1 81% 30.16 1020.3
19 03:54 E 3 10.00 Fair CLR 66.9 60.1 79% 30.17 1020.3
19 02:54 E 6 10.00 Fair CLR 68 61 78% 30.16 1020.1
19 01:54 E 7 10.00 Fair CLR 69.1 61 76% 30.17 1020.5
19 00:54 E 7 10.00 Fair CLR 71.1 61 84.9 71.1 71% 30.18 1020.9
Date Time (cdt) Wind (mph) Vis. (mi.) Weather Sky Cond. Air Dwpt Max. Min. Relative Humidity Wind Chill (°F) Heat Index (°F) altimeter (in) sea level (mb) 1 hr 3 hr 6 hr
6 hour
Temperature (ºF) Pressure Precipitation (in)